Time,TemperatureF,DewpointF,PressureIn,WindDirection,WindDirectionDegrees,WindSpeedMPH,WindSpeedGustMPH,Humidity,HourlyPrecipIn,Conditions,Clouds,dailyrainin,SoftwareType,DateUTC
2013-05-18 00:01:00,26.5,20.3,29.29,SW,231,2.0,15.0,77,0.00,,,0.00,Weather View 32 v70,2013-05-18 08:01:00,
2013-05-18 00:06:00,26.5,20.3,29.29,SW,234,8.0,15.0,77,0.00,,,0.00,Weather View 32 v70,2013-05-18 08:06:00,
2013-05-18 00:11:00,26.4,20.2,29.29,WSW,241,3.0,15.0,77,0.00,,,0.00,Weather View 32 v70,2013-05-18 08:11:00,
2013-05-18 00:16:00,26.3,20.1,29.29,WSW,245,4.0,15.0,77,0.00,,,0.00,Weather View 32 v70,2013-05-18 08:16:00,
2013-05-18 00:21:00,26.4,20.2,29.30,SW,225,2.0,15.0,77,0.00,,,0.00,Weather View 32 v70,2013-05-18 08:21:00,
2013-05-18 00:26:00,26.3,20.4,29.30,SW,220,9.0,15.0,78,0.00,,,0.00,Weather View 32 v70,2013-05-18 08:26:00,
2013-05-18 00:30:00,26.3,20.4,29.30,SW,221,6.0,15.0,78,0.00,,,0.00,Weather View 32 v70,2013-05-18 08:30:00,
2013-05-18 00:31:00,26.2,20.3,29.30,SW,228,4.0,15.0,78,0.00,,,0.00,Weather View 32 v70,2013-05-18 08:31:00,
2013-05-18 00:36:00,26.0,20.1,29.30,SW,221,7.0,15.0,78,0.00,,,0.00,Weather View 32 v70,2013-05-18 08:36:00,
2013-05-18 00:41:00,25.9,20.0,29.30,SW,228,8.0,13.0,78,0.00,,,0.00,Weather View 32 v70,2013-05-18 08:41:00,
2013-05-18 00:46:00,25.8,19.9,29.30,SW,231,4.0,13.0,78,0.00,,,0.00,Weather View 32 v70,2013-05-18 08:46:00,
2013-05-18 00:51:00,25.8,20.2,29.30,SW,235,4.0,13.0,79,0.00,,,0.00,Weather View 32 v70,2013-05-18 08:51:00,
2013-05-18 00:56:00,25.7,19.8,29.31,WSW,253,5.0,13.0,78,0.00,,,0.00,Weather View 32 v70,2013-05-18 08:56:00,
2013-05-18 01:01:00,25.7,20.1,29.31,SW,234,5.0,13.0,79,0.00,,,0.00,Weather View 32 v70,2013-05-18 09:01:00,
2013-05-18 01:06:00,25.7,20.1,29.31,WSW,248,3.0,12.0,79,0.00,,,0.00,Weather View 32 v70,2013-05-18 09:06:00,
2013-05-18 01:11:00,25.7,20.1,29.31,SSW,205,2.0,12.0,79,0.00,,,0.00,Weather View 32 v70,2013-05-18 09:11:00,
2013-05-18 01:15:00,25.7,19.8,29.31,WSW,245,3.0,12.0,78,0.00,,,0.00,Weather View 32 v70,2013-05-18 09:15:00,
2013-05-18 01:20:00,25.6,19.7,29.32,SW,233,3.0,12.0,78,0.00,,,0.00,Weather View 32 v70,2013-05-18 09:20:00,
2013-05-18 01:25:00,25.6,20.0,29.32,SW,223,3.0,11.0,79,0.00,,,0.00,Weather View 32 v70,2013-05-18 09:25:00,
2013-05-18 01:30:00,25.5,19.9,29.32,SW,228,3.0,11.0,79,0.00,,,0.00,Weather View 32 v70,2013-05-18 09:30:00,
2013-05-18 01:35:00,25.5,19.9,29.33,WSW,252,5.0,11.0,79,0.00,,,0.00,Weather View 32 v70,2013-05-18 09:35:00,
2013-05-18 01:40:00,25.5,19.9,29.33,WSW,258,8.0,11.0,79,0.00,,,0.00,Weather View 32 v70,2013-05-18 09:40:00,
2013-05-18 01:45:00,25.4,19.8,29.33,WSW,248,3.0,11.0,79,0.00,,,0.00,Weather View 32 v70,2013-05-18 09:45:00,
2013-05-18 01:50:00,25.4,19.5,29.33,SW,226,2.0,12.0,78,0.00,,,0.00,Weather View 32 v70,2013-05-18 09:50:00,
2013-05-18 01:55:00,25.3,19.7,29.33,WSW,242,5.0,12.0,79,0.00,,,0.00,Weather View 32 v70,2013-05-18 09:55:00,
2013-05-18 02:00:00,25.3,19.7,29.34,SW,229,4.0,12.0,79,0.00,,,0.00,Weather View 32 v70,2013-05-18 10:00:00,
2013-05-18 02:05:00,25.2,19.6,29.34,SW,227,5.0,12.0,79,0.00,,,0.00,Weather View 32 v70,2013-05-18 10:05:00,
2013-05-18 02:10:00,25.2,19.3,29.34,WSW,241,3.0,12.0,78,0.00,,,0.00,Weather View 32 v70,2013-05-18 10:10:00,
2013-05-18 02:15:00,25.2,19.3,29.35,WSW,240,5.0,12.0,78,0.00,,,0.00,Weather View 32 v70,2013-05-18 10:15:00,
2013-05-18 02:20:00,25.2,19.3,29.35,SW,233,3.0,12.0,78,0.00,,,0.00,Weather View 32 v70,2013-05-18 10:20:00,
2013-05-18 02:25:00,25.2,19.6,29.35,SW,225,6.0,12.0,79,0.00,,,0.00,Weather View 32 v70,2013-05-18 10:25:00,
2013-05-18 02:30:00,25.2,19.3,29.35,SW,228,4.0,12.0,78,0.00,,,0.00,Weather View 32 v70,2013-05-18 10:30:00,
2013-05-18 02:35:00,25.1,19.5,29.35,SW,225,7.0,12.0,79,0.00,,,0.00,Weather View 32 v70,2013-05-18 10:35:00,
2013-05-18 02:40:00,25.1,19.5,29.36,SW,222,3.0,12.0,79,0.00,,,0.00,Weather View 32 v70,2013-05-18 10:40:00,
2013-05-18 02:45:00,25.1,19.5,29.36,SW,233,8.0,12.0,79,0.00,,,0.00,Weather View 32 v70,2013-05-18 10:45:00,
2013-05-18 02:50:00,25.1,19.5,29.36,SW,232,4.0,12.0,79,0.00,,,0.00,Weather View 32 v70,2013-05-18 10:50:00,
2013-05-18 02:55:00,25.1,19.5,29.36,SW,235,2.0,12.0,79,0.00,,,0.00,Weather View 32 v70,2013-05-18 10:55:00,
2013-05-18 03:00:00,25.0,19.7,29.37,SW,231,4.0,12.0,80,0.00,,,0.00,Weather View 32 v70,2013-05-18 11:00:00,
2013-05-18 03:05:00,25.0,19.4,29.37,SSW,205,4.0,12.0,79,0.00,,,0.00,Weather View 32 v70,2013-05-18 11:05:00,
2013-05-18 03:10:00,25.0,19.7,29.37,SW,230,4.0,12.0,80,0.00,,,0.00,Weather View 32 v70,2013-05-18 11:10:00,
2013-05-18 03:15:00,24.9,19.6,29.37,SW,232,2.0,12.0,80,0.00,,,0.00,Weather View 32 v70,2013-05-18 11:15:00,
2013-05-18 03:20:00,24.9,19.6,29.37,SW,230,2.0,12.0,80,0.00,,,0.00,Weather View 32 v70,2013-05-18 11:20:00,
2013-05-18 03:25:00,24.9,19.6,29.38,SW,230,4.0,12.0,80,0.00,,,0.00,Weather View 32 v70,2013-05-18 11:25:00,
2013-05-18 03:30:00,24.8,19.5,29.38,SW,233,4.0,12.0,80,0.00,,,0.00,Weather View 32 v70,2013-05-18 11:30:00,
2013-05-18 03:35:00,24.8,19.5,29.38,SW,236,4.0,12.0,80,0.00,,,0.00,Weather View 32 v70,2013-05-18 11:35:00,
2013-05-18 03:40:00,24.8,19.2,29.39,WSW,242,3.0,10.0,79,0.00,,,0.00,Weather View 32 v70,2013-05-18 11:40:00,
2013-05-18 03:45:00,24.7,19.1,29.39,SW,224,3.0,10.0,79,0.00,,,0.00,Weather View 32 v70,2013-05-18 11:45:00,
2013-05-18 03:50:00,24.7,19.1,29.39,SW,231,3.0,10.0,79,0.00,,,0.00,Weather View 32 v70,2013-05-18 11:50:00,
2013-05-18 03:55:00,24.7,19.1,29.39,SW,228,3.0,10.0,79,0.00,,,0.00,Weather View 32 v70,2013-05-18 11:55:00,
2013-05-18 04:00:00,24.6,19.0,29.40,West,266,5.0,10.0,79,0.00,,,0.00,Weather View 32 v70,2013-05-18 12:00:00,
2013-05-18 04:05:00,24.5,18.9,29.40,SW,231,4.0,10.0,79,0.00,,,0.00,Weather View 32 v70,2013-05-18 12:05:00,
2013-05-18 04:10:00,24.4,18.8,29.40,WSW,239,1.0,10.0,79,0.00,,,0.00,Weather View 32 v70,2013-05-18 12:10:00,
2013-05-18 04:15:00,24.4,19.1,29.40,SW,231,2.0,10.0,80,0.00,,,0.00,Weather View 32 v70,2013-05-18 12:15:00,
2013-05-18 04:20:00,24.3,19.0,29.41,WSW,252,5.0,10.0,80,0.00,,,0.00,Weather View 32 v70,2013-05-18 12:20:00,
2013-05-18 04:25:00,24.2,18.6,29.41,SW,234,3.0,10.0,79,0.00,,,0.00,Weather View 32 v70,2013-05-18 12:25:00,
2013-05-18 04:30:00,24.1,18.2,29.41,SW,232,5.0,10.0,78,0.00,,,0.00,Weather View 32 v70,2013-05-18 12:30:00,
2013-05-18 04:35:00,24.1,17.9,29.41,WSW,242,2.0,10.0,77,0.00,,,0.00,Weather View 32 v70,2013-05-18 12:35:00,
2013-05-18 04:40:00,24.0,18.1,29.41,SW,220,2.0,10.0,78,0.00,,,0.00,Weather View 32 v70,2013-05-18 12:40:00,
2013-05-18 04:45:00,24.0,18.1,29.42,SSW,213,5.0,10.0,78,0.00,,,0.00,Weather View 32 v70,2013-05-18 12:45:00,
2013-05-18 04:50:00,24.0,17.5,29.42,SW,231,2.0,11.0,76,0.00,,,0.00,Weather View 32 v70,2013-05-18 12:50:00,
2013-05-18 04:55:00,24.0,16.9,29.42,WSW,240,2.0,11.0,74,0.00,,,0.00,Weather View 32 v70,2013-05-18 12:55:00,
2013-05-18 05:00:00,23.9,16.2,29.42,WSW,241,5.0,11.0,72,0.00,,,0.00,Weather View 32 v70,2013-05-18 13:00:00,
2013-05-18 05:05:00,23.9,15.5,29.42,SW,231,5.0,11.0,70,0.00,,,0.00,Weather View 32 v70,2013-05-18 13:05:00,
2013-05-18 05:10:00,23.9,14.2,29.43,SW,219,5.0,11.0,66,0.00,,,0.00,Weather View 32 v70,2013-05-18 13:10:00,
2013-05-18 05:15:00,23.9,13.5,29.43,WSW,246,12.0,12.0,64,0.00,,,0.00,Weather View 32 v70,2013-05-18 13:15:00,
2013-05-18 05:20:00,23.9,13.1,29.43,WSW,247,2.0,12.0,63,0.00,,,0.00,Weather View 32 v70,2013-05-18 13:20:00,
2013-05-18 05:25:00,23.9,13.1,29.43,WSW,253,3.0,12.0,63,0.00,,,0.00,Weather View 32 v70,2013-05-18 13:25:00,
2013-05-18 05:30:00,23.9,13.5,29.44,WSW,257,2.0,12.0,64,0.00,,,0.00,Weather View 32 v70,2013-05-18 13:30:00,
2013-05-18 05:35:00,23.9,13.5,29.44,WSW,244,4.0,12.0,64,0.00,,,0.00,Weather View 32 v70,2013-05-18 13:35:00,
2013-05-18 05:40:00,23.9,12.8,29.44,SW,224,4.0,12.0,62,0.00,,,0.00,Weather View 32 v70,2013-05-18 13:40:00,
2013-05-18 05:45:00,23.8,12.7,29.44,SW,231,1.0,12.0,62,0.00,,,0.00,Weather View 32 v70,2013-05-18 13:45:00,
2013-05-18 05:50:00,23.8,13.0,29.44,SW,220,5.0,12.0,63,0.00,,,0.00,Weather View 32 v70,2013-05-18 13:50:00,
2013-05-18 05:55:00,23.6,12.5,29.44,SW,236,4.0,12.0,62,0.00,,,0.00,Weather View 32 v70,2013-05-18 13:55:00,
2013-05-18 06:00:00,23.5,11.3,29.44,SW,218,7.0,12.0,59,0.00,,,0.00,Weather View 32 v70,2013-05-18 14:00:00,
2013-05-18 06:05:00,23.3,10.7,29.44,SW,215,5.0,12.0,58,0.00,,,0.00,Weather View 32 v70,2013-05-18 14:05:00,
2013-05-18 06:10:00,23.2,10.6,29.44,SW,217,4.0,12.0,58,0.00,,,0.00,Weather View 32 v70,2013-05-18 14:10:00,
2013-05-18 06:15:00,23.1,10.5,29.45,SW,228,3.0,12.0,58,0.00,,,0.00,Weather View 32 v70,2013-05-18 14:15:00,
2013-05-18 06:20:00,23.0,10.0,29.45,WSW,250,5.0,11.0,57,0.00,,,0.00,Weather View 32 v70,2013-05-18 14:20:00,
2013-05-18 06:25:00,22.8,9.8,29.45,SW,226,4.0,11.0,57,0.00,,,0.00,Weather View 32 v70,2013-05-18 14:25:00,
2013-05-18 06:30:00,22.8,10.2,29.45,SW,235,4.0,11.0,58,0.00,,,0.00,Weather View 32 v70,2013-05-18 14:30:00,
2013-05-18 06:35:00,22.8,9.8,29.45,SW,234,3.0,11.0,57,0.00,,,0.00,Weather View 32 v70,2013-05-18 14:35:00,
2013-05-18 06:40:00,23.0,10.0,29.46,SW,228,7.0,11.0,57,0.00,,,0.00,Weather View 32 v70,2013-05-18 14:40:00,
2013-05-18 06:45:00,23.1,9.3,29.46,SW,232,3.0,11.0,55,0.00,,,0.00,Weather View 32 v70,2013-05-18 14:45:00,
2013-05-18 06:50:00,23.3,8.3,29.46,SW,232,5.0,11.0,52,0.00,,,0.00,Weather View 32 v70,2013-05-18 14:50:00,
2013-05-18 06:55:00,23.5,8.5,29.46,SW,235,5.0,11.0,52,0.00,,,0.00,Weather View 32 v70,2013-05-18 14:55:00,
2013-05-18 07:00:00,23.6,6.8,29.46,SW,228,4.0,11.0,48,0.00,,,0.00,Weather View 32 v70,2013-05-18 15:00:00,
2013-05-18 07:05:00,23.7,6.9,29.47,WSW,240,3.0,11.0,48,0.00,,,0.00,Weather View 32 v70,2013-05-18 15:05:00,
2013-05-18 07:10:00,23.8,6.5,29.47,SW,223,8.0,11.0,47,0.00,,,0.00,Weather View 32 v70,2013-05-18 15:10:00,
2013-05-18 07:15:00,23.8,5.1,29.47,SW,236,5.0,13.0,44,0.00,,,0.00,Weather View 32 v70,2013-05-18 15:15:00,
2013-05-18 07:20:00,23.9,6.1,29.47,SW,229,7.0,13.0,46,0.00,,,0.00,Weather View 32 v70,2013-05-18 15:20:00,
2013-05-18 07:25:00,23.8,5.5,29.47,SW,229,2.0,13.0,45,0.00,,,0.00,Weather View 32 v70,2013-05-18 15:25:00,
2013-05-18 07:30:00,23.7,5.0,29.48,West,264,3.0,13.0,44,0.00,,,0.00,Weather View 32 v70,2013-05-18 15:30:00,
2013-05-18 07:35:00,23.8,4.0,29.48,SW,221,4.0,13.0,42,0.00,,,0.00,Weather View 32 v70,2013-05-18 15:35:00,
2013-05-18 07:40:00,23.8,3.5,29.48,SW,220,9.0,13.0,41,0.00,,,0.00,Weather View 32 v70,2013-05-18 15:40:00,
2013-05-18 07:45:00,23.8,3.5,29.48,SW,221,6.0,13.0,41,0.00,,,0.00,Weather View 32 v70,2013-05-18 15:45:00,
2013-05-18 07:50:00,24.0,3.7,29.48,SSW,200,6.0,13.0,41,0.00,,,0.00,Weather View 32 v70,2013-05-18 15:50:00,
2013-05-18 07:55:00,24.2,3.3,29.48,WSW,245,3.0,13.0,40,0.00,,,0.00,Weather View 32 v70,2013-05-18 15:55:00,
2013-05-18 08:00:00,24.3,3.4,29.49,SW,230,3.0,13.0,40,0.00,,,0.00,Weather View 32 v70,2013-05-18 16:00:00,
2013-05-18 08:05:00,24.3,2.9,29.49,SSW,209,3.0,13.0,39,0.00,,,0.00,Weather View 32 v70,2013-05-18 16:05:00,
2013-05-18 08:10:00,24.3,4.0,29.49,WSW,241,5.0,13.0,41,0.00,,,0.00,Weather View 32 v70,2013-05-18 16:10:00,
2013-05-18 08:15:00,24.6,3.7,29.50,West,281,7.0,13.0,40,0.00,,,0.00,Weather View 32 v70,2013-05-18 16:15:00,
2013-05-18 08:20:00,24.7,3.3,29.49,West,264,5.0,12.0,39,0.00,,,0.00,Weather View 32 v70,2013-05-18 16:20:00,
2013-05-18 08:25:00,24.7,2.7,29.49,WSW,243,2.0,12.0,38,0.00,,,0.00,Weather View 32 v70,2013-05-18 16:25:00,
2013-05-18 08:30:00,25.0,3.0,29.50,SW,223,6.0,12.0,38,0.00,,,0.00,Weather View 32 v70,2013-05-18 16:30:00,
2013-05-18 08:35:00,24.9,2.3,29.50,SW,234,8.0,12.0,37,0.00,,,0.00,Weather View 32 v70,2013-05-18 16:35:00,
2013-05-18 08:40:00,24.9,1.7,29.50,WSW,237,5.0,12.0,36,0.00,,,0.00,Weather View 32 v70,2013-05-18 16:40:00,
2013-05-18 08:45:00,25.1,3.0,29.51,SW,230,7.0,11.0,38,0.00,,,0.00,Weather View 32 v70,2013-05-18 16:45:00,
2013-05-18 08:50:00,25.4,2.2,29.51,SW,231,6.0,13.0,36,0.00,,,0.00,Weather View 32 v70,2013-05-18 16:50:00,
2013-05-18 08:55:00,25.3,2.7,29.51,WSW,257,9.0,13.0,37,0.00,,,0.00,Weather View 32 v70,2013-05-18 16:55:00,
2013-05-18 09:00:00,25.1,2.5,29.52,WSW,243,2.0,13.0,37,0.00,,,0.00,Weather View 32 v70,2013-05-18 17:00:00,
2013-05-18 09:05:00,24.9,1.1,29.52,WSW,250,4.0,13.0,35,0.00,,,0.00,Weather View 32 v70,2013-05-18 17:05:00,
2013-05-18 09:10:00,24.6,2.0,29.52,West,268,6.0,13.0,37,0.00,,,0.00,Weather View 32 v70,2013-05-18 17:10:00,
2013-05-18 09:15:00,24.7,0.9,29.52,SW,235,2.0,14.0,35,0.00,,,0.00,Weather View 32 v70,2013-05-18 17:15:00,
2013-05-18 09:20:00,24.5,1.9,29.52,WSW,244,6.0,14.0,37,0.00,,,0.00,Weather View 32 v70,2013-05-18 17:20:00,
2013-05-18 09:25:00,24.3,1.2,29.52,WSW,242,4.0,14.0,36,0.00,,,0.00,Weather View 32 v70,2013-05-18 17:25:00,
2013-05-18 09:30:00,24.4,1.3,29.53,WNW,299,5.0,14.0,36,0.00,,,0.00,Weather View 32 v70,2013-05-18 17:30:00,
2013-05-18 09:35:00,24.1,1.6,29.53,WSW,246,6.0,14.0,37,0.00,,,0.00,Weather View 32 v70,2013-05-18 17:35:00,
2013-05-18 09:40:00,24.1,1.6,29.53,WSW,240,10.0,14.0,37,0.00,,,0.00,Weather View 32 v70,2013-05-18 17:40:00,
2013-05-18 09:45:00,24.3,2.9,29.53,West,260,3.0,14.0,39,0.00,,,0.00,Weather View 32 v70,2013-05-18 17:45:00,
2013-05-18 09:50:00,24.5,1.9,29.53,WSW,240,6.0,14.0,37,0.00,,,0.00,Weather View 32 v70,2013-05-18 17:50:00,
2013-05-18 09:55:00,24.2,1.7,29.54,WSW,245,5.0,14.0,37,0.00,,,0.00,Weather View 32 v70,2013-05-18 17:55:00,
2013-05-18 10:00:00,24.3,2.3,29.54,SW,236,2.0,14.0,38,0.00,,,0.00,Weather View 32 v70,2013-05-18 18:00:00,
2013-05-18 10:05:00,24.5,3.1,29.54,WSW,241,5.0,14.0,39,0.00,,,0.00,Weather View 32 v70,2013-05-18 18:05:00,
2013-05-18 10:10:00,24.4,1.8,29.54,WSW,258,4.0,14.0,37,0.00,,,0.00,Weather View 32 v70,2013-05-18 18:10:00,
2013-05-18 10:15:00,24.5,2.5,29.54,SW,227,6.0,14.0,38,0.00,,,0.00,Weather View 32 v70,2013-05-18 18:15:00,
2013-05-18 10:20:00,24.4,1.8,29.55,SW,223,7.0,13.0,37,0.00,,,0.00,Weather View 32 v70,2013-05-18 18:20:00,
2013-05-18 10:25:00,24.2,1.7,29.55,WSW,238,5.0,13.0,37,0.00,,,0.00,Weather View 32 v70,2013-05-18 18:25:00,
2013-05-18 10:30:00,24.2,1.7,29.55,SW,226,5.0,13.0,37,0.00,,,0.00,Weather View 32 v70,2013-05-18 18:30:00,
2013-05-18 10:35:00,24.3,1.8,29.55,WSW,256,7.0,13.0,37,0.00,,,0.00,Weather View 32 v70,2013-05-18 18:35:00,
2013-05-18 10:40:00,24.5,2.5,29.55,WSW,254,2.0,13.0,38,0.00,,,0.00,Weather View 32 v70,2013-05-18 18:40:00,
2013-05-18 10:45:00,24.7,3.3,29.55,WSW,253,4.0,13.0,39,0.00,,,0.00,Weather View 32 v70,2013-05-18 18:45:00,
2013-05-18 10:50:00,24.6,2.0,29.56,WSW,246,6.0,13.0,37,0.00,,,0.00,Weather View 32 v70,2013-05-18 18:50:00,
2013-05-18 10:55:00,24.4,3.5,29.56,SW,226,2.0,13.0,40,0.00,,,0.00,Weather View 32 v70,2013-05-18 18:55:00,
2013-05-18 11:00:00,24.6,3.2,29.56,WSW,258,6.0,13.0,39,0.00,,,0.00,Weather View 32 v70,2013-05-18 19:00:00,
2013-05-18 11:05:00,24.7,4.3,29.56,SW,226,7.0,13.0,41,0.00,,,0.00,Weather View 32 v70,2013-05-18 19:05:00,
2013-05-18 11:10:00,24.9,3.4,29.57,WSW,252,6.0,13.0,39,0.00,,,0.00,Weather View 32 v70,2013-05-18 19:10:00,
2013-05-18 11:15:00,24.7,4.3,29.56,SW,230,3.0,13.0,41,0.00,,,0.00,Weather View 32 v70,2013-05-18 19:15:00,
2013-05-18 11:20:00,24.9,4.5,29.57,West,259,11.0,13.0,41,0.00,,,0.00,Weather View 32 v70,2013-05-18 19:20:00,
2013-05-18 11:25:00,24.7,4.3,29.57,WSW,247,6.0,13.0,41,0.00,,,0.00,Weather View 32 v70,2013-05-18 19:25:00,
2013-05-18 11:30:00,24.6,5.3,29.57,WSW,249,4.0,13.0,43,0.00,,,0.00,Weather View 32 v70,2013-05-18 19:30:00,
2013-05-18 11:35:00,24.8,6.0,29.57,West,277,4.0,13.0,44,0.00,,,0.00,Weather View 32 v70,2013-05-18 19:35:00,
2013-05-18 11:40:00,24.4,6.1,29.57,WSW,250,3.0,13.0,45,0.00,,,0.00,Weather View 32 v70,2013-05-18 19:40:00,
2013-05-18 11:45:00,24.6,6.3,29.58,SW,236,6.0,13.0,45,0.00,,,0.00,Weather View 32 v70,2013-05-18 19:45:00,
2013-05-18 11:50:00,24.6,6.3,29.57,WSW,242,3.0,13.0,45,0.00,,,0.00,Weather View 32 v70,2013-05-18 19:50:00,
2013-05-18 11:55:00,24.8,6.5,29.58,WSW,258,2.0,12.0,45,0.00,,,0.00,Weather View 32 v70,2013-05-18 19:55:00,
2013-05-18 12:00:00,24.5,6.2,29.58,SW,230,5.0,12.0,45,0.00,,,0.00,Weather View 32 v70,2013-05-18 20:00:00,
2013-05-18 12:05:00,24.6,5.3,29.58,WSW,244,3.0,12.0,43,0.00,,,0.00,Weather View 32 v70,2013-05-18 20:05:00,
2013-05-18 12:10:00,25.1,6.2,29.58,WNW,288,4.0,12.0,44,0.00,,,0.00,Weather View 32 v70,2013-05-18 20:10:00,
2013-05-18 12:15:00,25.2,5.3,29.58,WSW,254,6.0,12.0,42,0.00,,,0.00,Weather View 32 v70,2013-05-18 20:15:00,
2013-05-18 12:20:00,25.3,5.9,29.59,WSW,244,2.0,12.0,43,0.00,,,0.00,Weather View 32 v70,2013-05-18 20:20:00,
2013-05-18 12:25:00,25.4,6.0,29.59,WSW,237,6.0,12.0,43,0.00,,,0.00,Weather View 32 v70,2013-05-18 20:25:00,
2013-05-18 12:30:00,25.1,6.2,29.59,SW,235,5.0,12.0,44,0.00,,,0.00,Weather View 32 v70,2013-05-18 20:30:00,
2013-05-18 12:35:00,25.7,6.3,29.59,SW,229,8.0,12.0,43,0.00,,,0.00,Weather View 32 v70,2013-05-18 20:35:00,
2013-05-18 12:40:00,25.7,5.8,29.59,West,263,11.0,12.0,42,0.00,,,0.00,Weather View 32 v70,2013-05-18 20:40:00,
2013-05-18 12:45:00,25.5,5.6,29.59,WSW,255,2.0,12.0,42,0.00,,,0.00,Weather View 32 v70,2013-05-18 20:45:00,
2013-05-18 12:50:00,25.8,4.8,29.59,SSW,208,1.0,12.0,40,0.00,,,0.00,Weather View 32 v70,2013-05-18 20:50:00,
2013-05-18 12:55:00,26.2,4.6,29.59,SW,232,2.0,12.0,39,0.00,,,0.00,Weather View 32 v70,2013-05-18 20:55:00,
2013-05-18 13:00:00,26.9,5.8,29.59,WSW,254,5.0,12.0,40,0.00,,,0.00,Weather View 32 v70,2013-05-18 21:00:00,
2013-05-18 13:05:00,26.7,3.3,29.59,SW,228,2.0,12.0,36,0.00,,,0.00,Weather View 32 v70,2013-05-18 21:05:00,
2013-05-18 13:10:00,27.0,4.8,29.59,SW,225,7.0,12.0,38,0.00,,,0.00,Weather View 32 v70,2013-05-18 21:10:00,
2013-05-18 13:15:00,26.8,4.0,29.59,SW,224,6.0,12.0,37,0.00,,,0.00,Weather View 32 v70,2013-05-18 21:15:00,
2013-05-18 13:20:00,26.9,4.7,29.60,WSW,243,4.0,12.0,38,0.00,,,0.00,Weather View 32 v70,2013-05-18 21:20:00,
2013-05-18 13:25:00,27.3,5.0,29.59,SW,234,4.0,12.0,38,0.00,,,0.00,Weather View 32 v70,2013-05-18 21:25:00,
2013-05-18 13:30:00,27.4,3.9,29.59,NW,320,1.0,12.0,36,0.00,,,0.00,Weather View 32 v70,2013-05-18 21:30:00,
2013-05-18 13:35:00,27.8,4.9,29.60,WSW,245,6.0,12.0,37,0.00,,,0.00,Weather View 32 v70,2013-05-18 21:35:00,
2013-05-18 13:40:00,27.6,2.9,29.60,West,266,2.0,12.0,34,0.00,,,0.00,Weather View 32 v70,2013-05-18 21:40:00,
2013-05-18 13:45:00,27.7,4.8,29.60,SW,234,2.0,12.0,37,0.00,,,0.00,Weather View 32 v70,2013-05-18 21:45:00,
2013-05-18 13:50:00,27.8,4.9,29.60,SW,227,2.0,12.0,37,0.00,,,0.00,Weather View 32 v70,2013-05-18 21:50:00,
2013-05-18 13:55:00,27.9,3.8,29.59,WSW,240,5.0,12.0,35,0.00,,,0.00,Weather View 32 v70,2013-05-18 21:55:00,
2013-05-18 14:00:00,28.1,2.7,29.60,WSW,240,4.0,12.0,33,0.00,,,0.00,Weather View 32 v70,2013-05-18 22:00:00,
2013-05-18 14:05:00,27.9,2.5,29.59,SW,214,7.0,11.0,33,0.00,,,0.00,Weather View 32 v70,2013-05-18 22:05:00,
2013-05-18 14:10:00,28.0,3.2,29.59,SW,220,4.0,11.0,34,0.00,,,0.00,Weather View 32 v70,2013-05-18 22:10:00,
2013-05-18 14:15:00,28.4,2.9,29.60,SW,236,9.0,11.0,33,0.00,,,0.00,Weather View 32 v70,2013-05-18 22:15:00,
2013-05-18 14:20:00,28.6,3.1,29.60,West,262,4.0,11.0,33,0.00,,,0.00,Weather View 32 v70,2013-05-18 22:20:00,
2013-05-18 14:25:00,28.7,3.2,29.60,WSW,258,4.0,11.0,33,0.00,,,0.00,Weather View 32 v70,2013-05-18 22:25:00,
2013-05-18 14:30:00,29.3,3.7,29.60,West,271,6.0,11.0,33,0.00,,,0.00,Weather View 32 v70,2013-05-18 22:30:00,
2013-05-18 14:35:00,29.2,3.7,29.60,WSW,241,3.0,11.0,33,0.00,,,0.00,Weather View 32 v70,2013-05-18 22:35:00,
2013-05-18 14:40:00,29.6,2.7,29.60,WNW,284,10.0,11.0,31,0.00,,,0.00,Weather View 32 v70,2013-05-18 22:40:00,
2013-05-18 14:45:00,29.6,2.7,29.60,WSW,241,2.0,13.0,31,0.00,,,0.00,Weather View 32 v70,2013-05-18 22:45:00,
2013-05-18 14:50:00,29.6,2.7,29.61,NW,316,1.0,13.0,31,0.00,,,0.00,Weather View 32 v70,2013-05-18 22:50:00,
2013-05-18 14:55:00,30.0,3.7,29.61,WSW,258,2.0,13.0,32,0.00,,,0.00,Weather View 32 v70,2013-05-18 22:55:00,
2013-05-18 15:00:00,30.5,4.8,29.61,West,276,4.0,13.0,33,0.00,,,0.00,Weather View 32 v70,2013-05-18 23:00:00,
2013-05-18 15:05:00,31.0,3.9,29.61,SW,219,5.0,13.0,31,0.00,,,0.00,Weather View 32 v70,2013-05-18 23:05:00,
2013-05-18 15:10:00,30.7,4.3,29.61,SW,214,5.0,13.0,32,0.00,,,0.00,Weather View 32 v70,2013-05-18 23:10:00,
2013-05-18 15:15:00,31.2,4.7,29.61,SW,232,7.0,13.0,32,0.00,,,0.00,Weather View 32 v70,2013-05-18 23:15:00,
2013-05-18 15:20:00,30.8,2.3,29.61,SSW,212,6.0,13.0,29,0.00,,,0.00,Weather View 32 v70,2013-05-18 23:20:00,
2013-05-18 15:25:00,30.8,2.3,29.61,WSW,244,3.0,13.0,29,0.00,,,0.00,Weather View 32 v70,2013-05-18 23:25:00,
2013-05-18 15:30:00,30.9,2.4,29.61,SW,222,4.0,13.0,29,0.00,,,0.00,Weather View 32 v70,2013-05-18 23:30:00,
2013-05-18 15:35:00,31.1,2.5,29.61,WSW,242,3.0,13.0,29,0.00,,,0.00,Weather View 32 v70,2013-05-18 23:35:00,
2013-05-18 15:40:00,31.6,5.1,29.62,West,279,2.0,13.0,32,0.00,,,0.00,Weather View 32 v70,2013-05-18 23:40:00,
2013-05-18 15:45:00,31.6,3.7,29.62,West,261,3.0,13.0,30,0.00,,,0.00,Weather View 32 v70,2013-05-18 23:45:00,
2013-05-18 15:50:00,31.3,2.7,29.62,WSW,243,7.0,13.0,29,0.00,,,0.00,Weather View 32 v70,2013-05-18 23:50:00,
2013-05-18 15:55:00,30.9,2.4,29.62,West,261,3.0,13.0,29,0.00,,,0.00,Weather View 32 v70,2013-05-18 23:55:00,
2013-05-18 16:00:00,30.6,2.1,29.63,SW,228,4.0,13.0,29,0.00,,,0.00,Weather View 32 v70,2013-05-19 00:00:00,
2013-05-18 16:05:00,30.9,2.4,29.63,South,190,4.0,13.0,29,0.00,,,0.00,Weather View 32 v70,2013-05-19 00:05:00,
2013-05-18 16:10:00,31.0,1.7,29.63,SW,218,2.0,12.0,28,0.00,,,0.00,Weather View 32 v70,2013-05-19 00:10:00,
2013-05-18 16:15:00,31.2,2.6,29.63,WSW,245,3.0,12.0,29,0.00,,,0.00,Weather View 32 v70,2013-05-19 00:15:00,
2013-05-18 16:20:00,31.8,3.1,29.63,West,271,8.0,12.0,29,0.00,,,0.00,Weather View 32 v70,2013-05-19 00:20:00,
2013-05-18 16:25:00,32.1,1.9,29.64,SW,220,5.0,12.0,27,0.00,,,0.00,Weather View 32 v70,2013-05-19 00:25:00,
2013-05-18 16:30:00,31.9,1.7,29.64,WSW,243,2.0,12.0,27,0.00,,,0.00,Weather View 32 v70,2013-05-19 00:30:00,
2013-05-18 16:35:00,32.0,1.8,29.64,SW,233,5.0,12.0,27,0.00,,,0.00,Weather View 32 v70,2013-05-19 00:35:00,
2013-05-18 16:40:00,31.9,1.7,29.64,WSW,242,3.0,13.0,27,0.00,,,0.00,Weather View 32 v70,2013-05-19 00:40:00,
2013-05-18 16:45:00,32.0,4.0,29.64,SW,231,6.0,13.0,30,0.00,,,0.00,Weather View 32 v70,2013-05-19 00:45:00,
2013-05-18 16:50:00,32.3,3.6,29.64,SW,235,3.0,13.0,29,0.00,,,0.00,Weather View 32 v70,2013-05-19 00:50:00,
2013-05-18 16:55:00,32.7,2.4,29.64,WSW,242,7.0,13.0,27,0.00,,,0.00,Weather View 32 v70,2013-05-19 00:55:00,
2013-05-18 17:00:00,32.7,2.4,29.64,WSW,245,4.0,13.0,27,0.00,,,0.00,Weather View 32 v70,2013-05-19 01:00:00,
2013-05-18 17:05:00,33.1,2.7,29.65,SW,234,4.0,13.0,27,0.00,,,0.00,Weather View 32 v70,2013-05-19 01:05:00,
2013-05-18 17:10:00,33.5,3.1,29.65,WSW,238,5.0,13.0,27,0.00,,,0.00,Weather View 32 v70,2013-05-19 01:10:00,
2013-05-18 17:15:00,33.0,2.6,29.65,SW,230,6.0,13.0,27,0.00,,,0.00,Weather View 32 v70,2013-05-19 01:15:00,
2013-05-18 17:20:00,32.6,2.3,29.65,West,275,2.0,13.0,27,0.00,,,0.00,Weather View 32 v70,2013-05-19 01:20:00,
2013-05-18 17:25:00,32.9,3.3,29.65,West,262,8.0,13.0,28,0.00,,,0.00,Weather View 32 v70,2013-05-19 01:25:00,
2013-05-18 17:30:00,32.7,2.4,29.65,SW,216,4.0,13.0,27,0.00,,,0.00,Weather View 32 v70,2013-05-19 01:30:00,
2013-05-18 17:35:00,32.6,2.3,29.65,WSW,238,7.0,13.0,27,0.00,,,0.00,Weather View 32 v70,2013-05-19 01:35:00,
2013-05-18 17:40:00,32.7,2.4,29.65,WNW,299,5.0,12.0,27,0.00,,,0.00,Weather View 32 v70,2013-05-19 01:40:00,
2013-05-18 17:45:00,32.7,2.4,29.65,SW,225,7.0,12.0,27,0.00,,,0.00,Weather View 32 v70,2013-05-19 01:45:00,
2013-05-18 17:50:00,32.7,2.4,29.66,WSW,256,0.0,12.0,27,0.00,,,0.00,Weather View 32 v70,2013-05-19 01:50:00,
2013-05-18 17:55:00,32.7,2.4,29.65,SSW,207,3.0,12.0,27,0.00,,,0.00,Weather View 32 v70,2013-05-19 01:55:00,
2013-05-18 18:00:00,33.1,2.7,29.65,SSW,213,9.0,12.0,27,0.00,,,0.00,Weather View 32 v70,2013-05-19 02:00:00,
2013-05-18 18:05:00,33.6,3.2,29.66,SW,227,3.0,12.0,27,0.00,,,0.00,Weather View 32 v70,2013-05-19 02:05:00,
2013-05-18 18:10:00,33.7,3.2,29.66,SW,224,6.0,12.0,27,0.00,,,0.00,Weather View 32 v70,2013-05-19 02:10:00,
2013-05-18 18:15:00,33.6,3.2,29.66,WSW,251,5.0,12.0,27,0.00,,,0.00,Weather View 32 v70,2013-05-19 02:15:00,
2013-05-18 18:20:00,33.2,2.8,29.66,West,260,4.0,14.0,27,0.00,,,0.00,Weather View 32 v70,2013-05-19 02:20:00,
2013-05-18 18:25:00,33.5,3.1,29.66,WSW,242,3.0,14.0,27,0.00,,,0.00,Weather View 32 v70,2013-05-19 02:25:00,
2013-05-18 18:30:00,34.1,3.6,29.66,West,272,3.0,14.0,27,0.00,,,0.00,Weather View 32 v70,2013-05-19 02:30:00,
2013-05-18 18:35:00,33.9,0.9,29.67,SW,224,5.0,14.0,24,0.00,,,0.00,Weather View 32 v70,2013-05-19 02:35:00,
2013-05-18 18:40:00,33.6,2.3,29.67,SW,233,5.0,14.0,26,0.00,,,0.00,Weather View 32 v70,2013-05-19 02:40:00,
2013-05-18 18:45:00,33.6,2.3,29.67,SW,229,2.0,14.0,26,0.00,,,0.00,Weather View 32 v70,2013-05-19 02:45:00,
2013-05-18 18:50:00,33.8,2.5,29.68,West,264,2.0,14.0,26,0.00,,,0.00,Weather View 32 v70,2013-05-19 02:50:00,
2013-05-18 18:55:00,33.8,3.3,29.68,WSW,237,7.0,14.0,27,0.00,,,0.00,Weather View 32 v70,2013-05-19 02:55:00,
2013-05-18 19:00:00,33.6,3.2,29.68,WSW,245,7.0,14.0,27,0.00,,,0.00,Weather View 32 v70,2013-05-19 03:00:00,
2013-05-18 19:05:00,33.4,3.0,29.68,WSW,254,4.0,14.0,27,0.00,,,0.00,Weather View 32 v70,2013-05-19 03:05:00,
2013-05-18 19:10:00,33.5,3.1,29.68,SW,227,1.0,14.0,27,0.00,,,0.00,Weather View 32 v70,2013-05-19 03:10:00,
2013-05-18 19:15:00,33.8,3.3,29.68,WSW,242,5.0,14.0,27,0.00,,,0.00,Weather View 32 v70,2013-05-19 03:15:00,
2013-05-18 19:20:00,33.6,3.2,29.68,SW,224,10.0,11.0,27,0.00,,,0.00,Weather View 32 v70,2013-05-19 03:20:00,
2013-05-18 19:25:00,33.4,1.3,29.68,SW,217,2.0,13.0,25,0.00,,,0.00,Weather View 32 v70,2013-05-19 03:25:00,
2013-05-18 19:30:00,33.5,1.4,29.68,WSW,251,3.0,14.0,25,0.00,,,0.00,Weather View 32 v70,2013-05-19 03:30:00,
2013-05-18 19:35:00,33.7,2.4,29.69,WSW,244,3.0,14.0,26,0.00,,,0.00,Weather View 32 v70,2013-05-19 03:35:00,
2013-05-18 19:40:00,33.8,2.5,29.69,SW,233,5.0,14.0,26,0.00,,,0.00,Weather View 32 v70,2013-05-19 03:40:00,
2013-05-18 19:45:00,33.7,0.7,29.69,WSW,248,4.0,14.0,24,0.00,,,0.00,Weather View 32 v70,2013-05-19 03:45:00,
2013-05-18 19:50:00,33.7,0.7,29.69,WSW,240,2.0,14.0,24,0.00,,,0.00,Weather View 32 v70,2013-05-19 03:50:00,
2013-05-18 19:55:00,33.7,1.6,29.69,SW,227,5.0,14.0,25,0.00,,,0.00,Weather View 32 v70,2013-05-19 03:55:00,
2013-05-18 20:00:00,33.8,2.5,29.70,WSW,249,4.0,14.0,26,0.00,,,0.00,Weather View 32 v70,2013-05-19 04:00:00,
2013-05-18 20:01:00,33.8,2.5,29.70,WSW,258,4.0,14.0,26,0.00,,,0.00,Weather View 32 v70,2013-05-19 04:01:00,
2013-05-18 20:06:00,33.6,1.5,29.70,SW,229,5.0,14.0,25,0.00,,,0.00,Weather View 32 v70,2013-05-19 04:06:00,
2013-05-18 20:11:00,33.5,2.3,29.70,West,267,6.0,14.0,26,0.00,,,0.00,Weather View 32 v70,2013-05-19 04:11:00,
2013-05-18 20:16:00,33.6,3.2,29.71,West,275,3.0,14.0,27,0.00,,,0.00,Weather View 32 v70,2013-05-19 04:16:00,
2013-05-18 20:21:00,33.6,3.2,29.71,WSW,239,1.0,14.0,27,0.00,,,0.00,Weather View 32 v70,2013-05-19 04:21:00,
2013-05-18 20:26:00,33.7,3.2,29.71,WSW,244,4.0,12.0,27,0.00,,,0.00,Weather View 32 v70,2013-05-19 04:26:00,
2013-05-18 20:31:00,33.6,3.2,29.71,West,262,5.0,12.0,27,0.00,,,0.00,Weather View 32 v70,2013-05-19 04:31:00,
2013-05-18 20:36:00,33.5,3.1,29.72,SW,235,3.0,12.0,27,0.00,,,0.00,Weather View 32 v70,2013-05-19 04:36:00,
2013-05-18 20:41:00,33.6,3.2,29.72,SW,235,4.0,12.0,27,0.00,,,0.00,Weather View 32 v70,2013-05-19 04:41:00,
2013-05-18 20:46:00,33.5,3.1,29.72,WSW,243,1.0,12.0,27,0.00,,,0.00,Weather View 32 v70,2013-05-19 04:46:00,
2013-05-18 20:51:00,33.2,2.8,29.72,WSW,249,5.0,12.0,27,0.00,,,0.00,Weather View 32 v70,2013-05-19 04:51:00,
2013-05-18 20:56:00,32.7,2.4,29.72,West,267,4.0,12.0,27,0.00,,,0.00,Weather View 32 v70,2013-05-19 04:56:00,
2013-05-18 21:01:00,32.6,2.3,29.72,WSW,254,3.0,12.0,27,0.00,,,0.00,Weather View 32 v70,2013-05-19 05:01:00,
2013-05-18 21:06:00,32.6,3.1,29.73,NW,322,4.0,11.0,28,0.00,,,0.00,Weather View 32 v70,2013-05-19 05:06:00,
2013-05-18 21:11:00,32.6,3.1,29.73,West,278,7.0,11.0,28,0.00,,,0.00,Weather View 32 v70,2013-05-19 05:11:00,
2013-05-18 21:16:00,32.6,3.1,29.73,WSW,248,2.0,11.0,28,0.00,,,0.00,Weather View 32 v70,2013-05-19 05:16:00,
2013-05-18 21:21:00,32.6,3.1,29.73,West,272,3.0,11.0,28,0.00,,,0.00,Weather View 32 v70,2013-05-19 05:21:00,
2013-05-18 21:26:00,32.5,3.0,29.74,WNW,285,1.0,11.0,28,0.00,,,0.00,Weather View 32 v70,2013-05-19 05:26:00,
2013-05-18 21:31:00,32.5,3.7,29.74,WSW,252,3.0,11.0,29,0.00,,,0.00,Weather View 32 v70,2013-05-19 05:31:00,
2013-05-18 21:36:00,32.4,3.7,29.74,WSW,251,3.0,11.0,29,0.00,,,0.00,Weather View 32 v70,2013-05-19 05:36:00,
2013-05-18 21:41:00,32.5,3.7,29.74,WSW,238,2.0,11.0,29,0.00,,,0.00,Weather View 32 v70,2013-05-19 05:41:00,
2013-05-18 21:46:00,32.6,3.8,29.75,WSW,243,2.0,11.0,29,0.00,,,0.00,Weather View 32 v70,2013-05-19 05:46:00,
2013-05-18 21:51:00,32.5,3.7,29.75,WSW,258,6.0,11.0,29,0.00,,,0.00,Weather View 32 v70,2013-05-19 05:51:00,
2013-05-18 21:56:00,32.3,4.3,29.75,SW,232,4.0,11.0,30,0.00,,,0.00,Weather View 32 v70,2013-05-19 05:56:00,
2013-05-18 22:01:00,32.1,4.8,29.75,WSW,245,2.0,11.0,31,0.00,,,0.00,Weather View 32 v70,2013-05-19 06:01:00,
2013-05-18 22:06:00,31.9,4.7,29.75,West,274,2.0,11.0,31,0.00,,,0.00,Weather View 32 v70,2013-05-19 06:06:00,
2013-05-18 22:11:00,31.8,4.6,29.75,WSW,254,5.0,11.0,31,0.00,,,0.00,Weather View 32 v70,2013-05-19 06:11:00,
2013-05-18 22:16:00,31.7,5.2,29.76,WSW,252,1.0,11.0,32,0.00,,,0.00,Weather View 32 v70,2013-05-19 06:16:00,
2013-05-18 22:21:00,31.6,5.1,29.76,West,268,2.0,11.0,32,0.00,,,0.00,Weather View 32 v70,2013-05-19 06:21:00,
2013-05-18 22:26:00,31.4,4.9,29.76,WSW,249,3.0,11.0,32,0.00,,,0.00,Weather View 32 v70,2013-05-19 06:26:00,
2013-05-18 22:31:00,31.3,4.8,29.76,SW,226,7.0,11.0,32,0.00,,,0.00,Weather View 32 v70,2013-05-19 06:31:00,
2013-05-18 22:36:00,31.1,4.7,29.76,WSW,243,4.0,10.0,32,0.00,,,0.00,Weather View 32 v70,2013-05-19 06:36:00,
2013-05-18 22:41:00,31.0,4.6,29.76,SW,224,4.0,12.0,32,0.00,,,0.00,Weather View 32 v70,2013-05-19 06:41:00,
2013-05-18 22:46:00,30.8,5.1,29.77,WSW,237,4.0,12.0,33,0.00,,,0.00,Weather View 32 v70,2013-05-19 06:46:00,
2013-05-18 22:51:00,30.7,5.0,29.77,WSW,237,8.0,12.0,33,0.00,,,0.00,Weather View 32 v70,2013-05-19 06:51:00,
2013-05-18 22:56:00,30.5,4.8,29.77,SW,225,4.0,12.0,33,0.00,,,0.00,Weather View 32 v70,2013-05-19 06:56:00,
2013-05-18 23:01:00,30.4,4.7,29.78,SW,226,2.0,12.0,33,0.00,,,0.00,Weather View 32 v70,2013-05-19 07:01:00,
2013-05-18 23:06:00,30.3,4.6,29.78,SW,226,2.0,12.0,33,0.00,,,0.00,Weather View 32 v70,2013-05-19 07:06:00,
2013-05-18 23:11:00,30.1,4.4,29.78,SW,226,1.0,12.0,33,0.00,,,0.00,Weather View 32 v70,2013-05-19 07:11:00,
2013-05-18 23:16:00,30.0,5.0,29.78,SW,226,2.0,12.0,34,0.00,,,0.00,Weather View 32 v70,2013-05-19 07:16:00,
2013-05-18 23:21:00,29.8,5.5,29.79,SW,226,2.0,12.0,35,0.00,,,0.00,Weather View 32 v70,2013-05-19 07:21:00,
2013-05-18 23:26:00,29.8,4.8,29.79,SW,226,2.0,12.0,34,0.00,,,0.00,Weather View 32 v70,2013-05-19 07:26:00,
2013-05-18 23:30:00,29.8,5.5,29.79,SW,226,2.0,12.0,35,0.00,,,0.00,Weather View 32 v70,2013-05-19 07:30:00,
2013-05-18 23:31:00,29.7,6.0,29.79,SW,226,2.0,12.0,36,0.00,,,0.00,Weather View 32 v70,2013-05-19 07:31:00,
2013-05-18 23:36:00,29.6,5.3,29.80,SW,226,2.0,12.0,35,0.00,,,0.00,Weather View 32 v70,2013-05-19 07:36:00,
2013-05-18 23:41:00,29.6,5.3,29.80,SW,226,1.0,12.0,35,0.00,,,0.00,Weather View 32 v70,2013-05-19 07:41:00,
2013-05-18 23:46:00,29.5,5.2,29.80,SW,226,2.0,8.0,35,0.00,,,0.00,Weather View 32 v70,2013-05-19 07:46:00,
2013-05-18 23:51:00,29.4,5.1,29.81,SW,226,2.0,8.0,35,0.00,,,0.00,Weather View 32 v70,2013-05-19 07:51:00,
2013-05-18 23:56:00,29.3,6.2,29.81,SW,226,3.0,5.0,37,0.00,,,0.00,Weather View 32 v70,2013-05-19 07:56:00,